Temperature
18 18 18 18 17 17 17 17 17 17 16 17 16 16 16 16 16 17 16 16 16 16 16 16 16 16 16 16 16 16 16 16 17 16 16 15 15 15 15 15 14 14 14
18 18 18 17 17 17 17 17 17 16 16 16 16 16 16 16 16 16 16 16 16 16 16 16 16 16 16 16 16 16 16 16 16 15 15 15 15 15 14 14 14 14 14
18 17 17 17 17 17 17 17 16 16 16 16 16 16 16 16 16 16 15 15 15 15 15 15 15 15 15 15 15 15 15 15 15 15 15 15 15 14 14 14 14 14 14
17 17 17 16 16 16 16 16 16 16 16 16 16 16 16 15 15 15 15 15 15 15 15 15 15 15 15 15 15 15 15 15 15 15 15 15 14 14 14 14 14 14 14
17 16 16 16 16 16 16 16 16 16 16 16 15 15 15 15 15 15 14 14 14 14 14 14 14 14 14 14 14 14 14 14 15 15 15 15 14 14 14 13 14 13 13
16 16 16 16 16 16 15 15 15 15 15 15 15 15 14 14 15 14 14 14 14 14 14 14 14 14 14 14 14 14 14 14 14 14 14 14 13 13 13 13 13 13 13
16 16 16 16 15 15 15 15 15 15 15 15 14 14 14 14 14 14 14 14 14 14 14 14 14 14 14 14 14 14 14 14 14 14 13 13 13 13 13 13 12 12 13
16 16 16 15 15 15 15 15 15 14 14 14 14 14 14 14 14 14 14 14 13 13 13 13 13 13 13 13 13 13 13 13 13 13 13 13 13 13 13 12 12 12 12
16 15 15 15 15 15 15 15 14 14 14 14 14 14 14 14 14 14 14 13 13 13 13 13 13 13 13 13 13 13 13 13 13 13 13 13 13 13 13 12 12 12 12
15 15 15 15 15 14 14 14 14 14 14 14 13 13 13 13 14 13 13 13 13 13 13 13 13 13 13 13 13 13 13 13 13 13 12 12 12 12 12 12 12 12 12
15 15 15 15 14 14 14 14 14 14 13 13 13 13 13 13 13 13 13 13 12 13 13 13 13 13 13 13 13 12 12 12 12 12 12 12 12 12 12 12 12 11 12
15 14 14 14 14 14 14 14 13 13 13 13 13 13 13 13 13 13 13 13 12 12 12 12 13 13 13 12 12 12 12 12 12 12 12 12 12 12 12 11 11 11 11
15 14 14 14 14 13 13 13 13 13 13 13 13 13 13 13 13 13 13 13 12 12 12 12 12 12 12 12 12 12 12 12 12 12 12 12 12 12 11 11 11 11 11
14 14 14 13 13 13 13 13 13 13 12 13 13 13 13 12 12 12 12 12 12 12 12 12 12 12 12 12 12 12 12 11 11 11 12 11 11 11 11 11 11 11 11
13 13 13 13 13 13 12 12 12 12 12 12 12 12 12 12 12 12 12 12 12 11 11 11 11 11 11 11 11 11 11 11 11 11 11 11 11 11 11 11 11 11 11
13 13 13 13 12 12 12 12 12 12 12 12 12 11 11 12 11 11 11 11 11 11 11 11 11 11 11 11 11 11 11 11 11 11 11 11 11 11 10 10 10 10 10
12 12 12 12 12 12 12 12 12 12 11 11 11 11 11 11 11 11 11 11 11 11 11 11 11 11 11 11 11 11 11 11 10 10 10 10 10 10 10 10 10 10 10
12 12 12 12 12 12 11 11 11 11 11 11 11 11 11 11 11 11 11 10 11 11 11 11 11 11 10 10 10 10 10 10 10 10 10 10 10 10 10 10 10 10 9
11 11 11 11 11 11 11 11 11 11 11 11 11 11 11 10 10 10 10 10 10 10 10 10 10 10 10 10 10 10 10 10 10 10 10 10 10 10 10 10 10 9 9
11 11 10 10 11 11 11 11 11 10 10 10 10 10 10 10 10 10 10 10 10 10 10 10 10 9 9 9 9 9 9 9 9 9 10 10 9 9 9 9 9 9 9
11 10 10 10 10 10 10 10 10 10 10 10 10 10 10 10 10 10 10 10 9 9 9 9 9 9 9 9 9 9 9 9 9 9 9 9 9 9 9 9 9 9 9
10 10 10 10 10 10 9 9 9 9 9 9 9 9 9 9 9 9 9 9 9 9 9 9 9 9 9 9 9 9 9 9 9 9 9 8 8 8 8 8 8 8 8
10 10 10 9 9 9 9 9 9 9 9 9 9 9 9 9 9 9 9 9 9 9 9 9 9 9 8 8 8 8 8 8 9 8 8 8 8 8 8 8 8 8 8
10 9 9 9 9 9 9 9 9 9 9 9 8 9 9 8 8 8 8 8 8 8 8 8 8 8 8 8 8 8 8 8 8 8 8 8 8 8 8 8 8 8 8
9 9 9 9 9 9 9 8 8 8 8 8 8 8 8 8 8 8 8 8 8 8 8 8 8 8 8 8 8 8 8 8 8 8 8 7 7 7 7 7 7 7 7
9 9 9 9 8 8 8 8 8 8 8 8 8 8 8 8 8 8 8 8 7 7 7 8 8 8 8 7 7 7 8 8 8 8 7 7 7 7 7 7 7 7 7
Wind_Speed
4 3 3 2 2 2 1 1 1 1 1 1 1 1 0 1 1 2 2 2 2 1 1 1 1 1 1 1 1 1 2 2 3 2 2 1 2 3 2 2 2 1 2
3 3 3 2 2 2 1 1 1 1 1 1 1 1 1 1 1 1 2 2 2 2 2 1 2 1 1 1 1 1 1 1 2 3 3 2 2 2 2 3 2 2 1
3 2 2 2 2 2 1 1 1 1 1 1 1 1 1 0 1 1 1 2 2 2 2 2 2 1 1 1 1 2 2 2 2 3 3 2 2 1 2 3 3 3 3
3 3 2 2 2 2 2 1 1 1 1 1 1 1 1 1 1 1 1 1 1 2 2 2 2 2 2 2 2 2 2 3 3 4 3 2 2 1 3 3 3 2 3
3 2 2 2 2 2 2 2 1 1 1 1 1 1 1 1 1 1 2 2 2 2 2 3 2 1 1 3 3 2 3 4 4 4 4 3 2 2 3 3 3 3 3
2 2 2 2 2 2 2 2 2 2 1 1 2 2 2 1 2 2 2 2 3 3 3 3 3 3 3 4 3 4 4 5 5 5 5 4 3 4 4 4 4 4 3
3 2 3 3 3 3 3 3 2 2 2 2 3 2 2 1 0 1 3 3 3 3 3 3 3 2 3 4 5 7 6 6 6 7 6 6 4 3 4 5 4 5 5
3 3 3 3 3 3 3 3 3 3 3 3 3 3 3 3 2 3 4 3 3 3 4 4 4 3 3 4 5 5 5 5 6 6 6 6 5 4 5 6 5 5 5
3 3 3 4 4 4 4 4 3 4 4 4 4 4 4 4 3 4 4 3 3 4 4 4 4 4 2 4 6 6 6 5 6 7 6 6 4 4 5 5 4 5 5
3 3 3 4 4 4 4 4 4 4 5 5 4 4 4 4 3 4 5 4 4 4 4 4 4 4 3 4 6 6 6 6 5 5 6 6 6 6 7 6 5 6 5
3 3 3 3 4 4 4 4 4 5 5 4 4 4 5 5 4 5 5 4 5 5 5 4 3 3 4 5 7 7 7 7 6 6 5 5 5 4 5 5 5 5 6
3 3 3 3 3 3 4 4 4 5 5 5 5 5 4 5 4 5 5 6 6 6 5 5 3 2 4 7 7 6 7 7 6 5 5 5 5 5 4 4 5 5 5
2 2 3 3 3 4 4 5 5 5 5 5 5 5 5 4 4 6 7 6 6 5 5 4 3 5 7 7 8 8 8 7 6 6 6 5 5 4 4 4 5 5 6
2 2 3 3 3 3 4 4 5 5 5 5 5 5 5 4 4 3 4 4 5 6 5 4 7 9 8 7 6 6 6 6 6 6 6 5 5 5 5 5 4 5 5
1 2 2 2 2 3 4 4 5 5 5 6 6 5 5 5 3 2 3 4 4 4 4 5 5 4 5 5 5 5 5 5 6 6 5 5 5 5 5 5 5 5 6
2 2 2 2 2 3 3 3 2 4 3 5 6 6 5 3 2 3 4 5 4 4 5 6 6 6 6 6 6 6 6 6 6 6 6 6 6 6 5 5 5 6 7
2 2 3 2 2 3 3 3 3 2 2 4 5 5 5 4 4 5 5 5 6 5 6 6 7 7 7 6 6 6 6 5 5 6 6 6 6 6 5 5 5 6 7
3 2 3 2 3 3 3 3 4 4 4 3 3 5 5 5 6 6 6 4 5 5 6 7 7 7 7 6 6 6 6 5 5 6 6 6 5 6 6 6 6 6 7
3 2 2 2 3 3 3 3 3 4 4 4 4 2 3 4 5 6 6 5 6 6 6 7 7 7 6 6 6 6 6 6 6 6 6 6 6 6 6 6 6 6 7
2 1 2 3 3 3 3 3 3 3 4 4 4 4 2 3 4 4 4 5 6 6 6 7 6 6 6 6 6 6 6 6 6 6 6 5 5 5 6 6 6 6 6
2 1 1 2 2 3 3 3 3 4 4 4 4 4 3 5 6 6 5 5 5 6 6 6 6 6 6 5 6 6 7 6 6 5 5 5 5 5 5 5 5 5 6
2 2 2 2 3 3 3 4 4 4 5 5 5 4 3 5 5 5 5 5 5 6 6 6 6 5 5 5 5 5 6 6 5 5 5 5 5 5 5 5 5 5 5
2 2 3 3 3 3 4 4 4 4 5 5 5 5 4 5 5 5 5 5 4 5 5 5 5 5 5 5 5 5 5 5 5 5 5 5 5 5 5 5 6 6 6
2 3 3 3 3 4 4 4 4 5 5 5 5 5 5 5 5 5 5 5 5 5 5 5 5 6 6 5 5 5 5 5 6 6 6 6 6 5 5 6 6 6 6
3 3 4 4 4 4 4 4 5 5 5 4 5 5 5 5 5 5 4 4 5 5 5 5 5 5 6 7 7 6 3 4 5 6 6 5 6 5 5 5 5 5 5
3 3 3 4 4 4 4 5 5 5 5 5 5 5 5 5 5 5 4 4 5 5 5 5 5 6 6 6 6 5 3 3 4 6 6 5 5 5 5 5 5 5 5
Wind_Direction
187 191 188 189 183 189 196 202 185 219 233 238 243 245 275 284 254 227 215 195 202 206 209 196 233 298 278 286 279 277 276 285 274 297 313 6 343 325 349 320 297 284 111
183 188 189 190 189 199 188 202 212 218 222 222 233 238 237 242 244 223 219 207 207 210 213 210 225 203 222 284 288 282 281 284 275 283 291 299 305 301 310 292 300 296 319
187 191 191 202 198 205 209 206 214 227 234 225 219 233 246 239 230 223 221 226 221 219 219 215 225 219 231 248 262 265 265 258 266 263 272 301 290 301 292 283 290 296 285
196 203 205 215 219 225 231 235 236 237 244 253 247 235 214 229 230 232 232 243 242 235 229 231 232 234 240 247 239 250 263 266 260 263 269 267 266 275 274 277 279 272 289
201 211 212 220 219 234 238 232 230 240 240 242 257 259 249 236 232 250 245 243 247 241 231 227 219 221 288 278 277 271 264 264 265 267 266 265 266 276 274 275 281 278 263
202 213 215 218 223 228 231 225 226 239 252 239 248 255 257 259 60 10 288 258 253 249 239 229 218 204 211 218 250 271 276 266 273 276 271 276 274 266 274 274 274 280 281
203 214 217 221 225 230 234 231 232 237 243 245 246 247 243 240 214 268 276 267 256 253 251 248 253 232 223 246 224 221 233 244 258 269 276 280 275 270 272 268 272 280 291
209 221 224 224 228 234 236 235 236 237 240 244 246 246 244 235 221 240 258 248 256 254 246 243 245 256 260 273 269 255 249 242 238 245 261 268 273 275 258 264 270 263 261
217 229 234 233 235 236 238 240 241 239 239 240 242 243 243 243 230 235 255 244 245 249 248 246 248 251 273 275 264 261 257 255 227 220 236 250 260 249 262 261 260 261 264
230 238 240 240 241 241 240 244 245 241 241 245 246 250 251 251 231 232 254 251 251 251 243 235 229 242 259 260 256 259 261 263 267 240 224 225 229 220 219 242 260 263 271
234 240 241 246 247 244 246 248 248 248 250 251 252 252 250 249 222 216 242 252 259 256 255 254 241 186 226 248 257 256 262 268 262 252 242 234 228 227 227 232 254 266 272
232 238 248 254 258 252 246 250 250 250 248 246 246 251 247 240 233 220 221 246 274 261 262 264 257 181 227 244 248 251 257 257 252 250 248 243 242 243 238 239 242 253 269
238 248 260 267 267 262 249 245 244 241 249 253 251 252 253 250 222 201 212 233 253 255 266 284 271 246 241 240 233 234 242 246 247 247 249 248 248 250 245 236 233 233 242
243 256 259 263 266 263 260 253 253 253 255 257 256 258 260 253 249 237 234 234 231 244 258 243 222 230 239 253 248 234 240 247 251 253 258 257 252 246 244 245 245 242 245
266 272 270 261 265 270 263 263 260 262 261 266 267 265 266 263 268 308 278 265 267 270 274 264 259 254 251 252 254 250 243 241 245 251 255 258 256 255 254 250 247 249 253
270 279 283 280 272 268 273 278 256 259 255 252 263 270 273 273 265 258 261 270 275 268 260 258 261 262 262 261 259 257 250 246 247 249 250 251 252 251 252 253 251 251 253
271 281 282 285 286 289 284 283 287 274 242 239 236 244 250 253 243 245 248 252 244 228 240 251 259 260 260 260 261 262 261 256 256 256 255 256 257 258 256 255 253 254 256
272 278 278 279 288 294 295 293 290 290 289 285 239 207 217 232 238 240 232 236 248 233 252 256 256 256 257 259 262 265 267 267 258 257 258 259 260 261 258 256 255 256 258
271 280 293 300 294 294 293 290 290 292 292 294 298 262 214 229 231 235 225 250 260 261 259 259 261 264 266 266 266 267 268 266 264 263 262 259 256 256 257 258 257 254 255
286 333 301 292 294 294 294 297 299 298 293 291 293 298 292 272 273 261 245 255 260 264 268 267 267 267 267 270 272 270 266 264 263 259 259 260 259 257 257 258 260 260 257
315 310 275 278 292 303 302 301 301 297 294 291 289 296 298 283 278 274 271 266 264 268 272 275 273 269 265 266 270 269 267 266 264 263 262 261 262 262 261 258 259 260 261
306 298 301 306 309 308 305 299 294 291 292 294 297 288 251 267 278 281 276 274 274 273 274 272 271 271 270 267 269 271 273 274 273 272 267 263 259 261 264 261 257 258 256
288 297 300 301 301 299 290 294 297 299 298 297 299 300 291 286 288 288 286 282 283 285 285 283 280 277 276 274 273 270 270 274 271 271 271 263 259 257 257 258 259 259 254
301 298 299 299 298 298 302 303 301 299 300 301 300 296 294 291 290 293 293 294 291 289 288 286 283 283 286 285 280 273 270 279 280 275 269 268 267 262 259 259 259 261 262
301 303 303 304 303 302 304 304 305 308 308 306 303 301 302 299 294 294 295 295 296 292 290 287 286 287 286 285 286 287 304 298 283 280 268 262 263 261 262 263 263 263 263
308 305 305 304 302 302 301 301 303 306 306 308 308 309 309 306 304 304 304 305 305 300 294 289 296 297 293 287 293 313 311 274 265 269 267 262 258 255 259 258 259 259 261
Height
1521 1522 1522 1522 1523 1523 1523 1523 1523 1523 1522 1522 1521 1521 1520 1520 1520 1519 1520 1520 1520 1520 1520 1520 1520 1520 1521 1521 1521 1521 1521 1521 1521 1521 1520 1518 1516 1516 1515 1514 1513 1512 1511
1520 1520 1521 1521 1521 1521 1522 1522 1521 1521 1521 1520 1519 1519 1518 1518 1518 1518 1518 1518 1518 1518 1518 1518 1519 1519 1519 1519 1519 1519 1519 1518 1519 1518 1517 1516 1515 1513 1512 1511 1511 1511 1510
1519 1519 1519 1520 1520 1520 1520 1520 1520 1519 1519 1518 1518 1517 1516 1516 1516 1516 1516 1516 1516 1516 1516 1516 1517 1517 1517 1517 1516 1517 1517 1517 1516 1516 1515 1514 1513 1512 1510 1510 1509 1508 1508
1517 1517 1517 1517 1517 1517 1517 1517 1517 1517 1517 1516 1516 1515 1514 1514 1514 1514 1514 1514 1513 1513 1513 1514 1514 1514 1514 1514 1515 1514 1514 1514 1514 1514 1513 1512 1511 1510 1509 1508 1507 1506 1506
1515 1515 1515 1516 1514 1515 1515 1515 1515 1515 1515 1514 1514 1513 1513 1512 1512 1512 1512 1512 1511 1511 1511 1511 1512 1511 1512 1512 1513 1512 1512 1512 1512 1512 1511 1510 1509 1508 1507 1506 1506 1504 1503
1513 1513 1514 1513 1513 1513 1513 1513 1513 1513 1512 1512 1511 1511 1510 1511 1510 1509 1509 1509 1509 1508 1508 1508 1509 1509 1509 1509 1509 1508 1509 1509 1509 1508 1508 1508 1506 1505 1504 1504 1503 1503 1502
1510 1511 1511 1511 1511 1511 1512 1512 1511 1510 1510 1509 1509 1509 1508 1507 1507 1507 1507 1506 1506 1506 1506 1506 1507 1507 1506 1506 1505 1505 1505 1505 1505 1505 1505 1504 1503 1502 1501 1501 1501 1500 1499
1508 1508 1509 1509 1509 1509 1509 1509 1508 1508 1508 1507 1507 1506 1505 1505 1505 1504 1504 1504 1503 1503 1503 1503 1503 1503 1503 1503 1502 1502 1502 1502 1501 1501 1500 1500 1500 1499 1498 1498 1497 1496 1496
1506 1506 1506 1506 1506 1506 1506 1506 1506 1505 1505 1505 1504 1504 1503 1502 1502 1502 1501 1501 1501 1501 1501 1500 1500 1500 1500 1499 1499 1499 1498 1498 1497 1496 1496 1496 1495 1495 1494 1495 1495 1494 1494
1503 1503 1503 1503 1503 1503 1503 1503 1502 1502 1502 1502 1501 1501 1501 1500 1499 1499 1498 1499 1499 1498 1498 1497 1497 1496 1496 1496 1495 1495 1495 1494 1494 1493 1492 1492 1492 1492 1491 1491 1491 1492 1491
1500 1500 1500 1500 1500 1500 1499 1499 1499 1499 1499 1499 1498 1498 1498 1497 1496 1496 1496 1496 1496 1495 1495 1494 1493 1492 1492 1491 1491 1491 1491 1490 1490 1490 1489 1489 1489 1489 1489 1488 1488 1488 1488
1497 1497 1497 1497 1496 1496 1495 1495 1495 1495 1495 1495 1494 1494 1494 1494 1493 1493 1493 1492 1492 1491 1491 1491 1490 1488 1488 1487 1487 1486 1486 1486 1486 1486 1486 1486 1486 1486 1485 1485 1484 1484 1483
1493 1493 1493 1493 1492 1492 1492 1491 1491 1491 1492 1491 1491 1491 1491 1491 1490 1489 1489 1488 1487 1487 1486 1486 1485 1484 1483 1483 1483 1482 1482 1482 1482 1482 1482 1482 1482 1481 1481 1480 1480 1479 1479
1491 1490 1490 1490 1489 1488 1488 1488 1488 1488 1488 1488 1488 1487 1487 1487 1486 1486 1485 1484 1484 1483 1482 1481 1481 1480 1480 1479 1479 1478 1478 1478 1479 1479 1478 1478 1478 1477 1477 1477 1476 1476 1475
1488 1488 1487 1487 1486 1485 1485 1484 1484 1484 1485 1484 1484 1484 1483 1483 1482 1482 1481 1481 1480 1480 1479 1478 1478 1477 1476 1476 1475 1475 1474 1474 1474 1474 1474 1474 1473 1473 1473 1473 1472 1472 1472
1486 1486 1485 1485 1484 1483 1482 1481 1480 1481 1480 1480 1480 1479 1478 1478 1478 1477 1477 1477 1476 1476 1475 1475 1474 1473 1473 1472 1472 1471 1470 1470 1469 1469 1469 1469 1469 1469 1468 1468 1468 1468 1467
1483 1483 1483 1482 1481 1481 1479 1478 1477 1477 1476 1476 1475 1475 1474 1474 1473 1473 1473 1473 1472 1471 1471 1471 1470 1470 1469 1468 1467 1467 1466 1466 1465 1465 1465 1464 1464 1464 1464 1464 1464 1463 1463
1481 1481 1480 1479 1479 1478 1477 1476 1475 1474 1474 1472 1472 1471 1471 1470 1469 1469 1468 1468 1467 1467 1467 1466 1466 1465 1464 1464 1463 1462 1462 1461 1461 1460 1460 1459 1459 1459 1459 1459 1459 1459 1459
1479 1479 1478 1477 1477 1476 1475 1474 1473 1472 1471 1470 1469 1468 1467 1466 1466 1465 1464 1464 1463 1463 1463 1462 1461 1461 1460 1459 1459 1458 1457 1457 1456 1455 1455 1455 1455 1454 1454 1454 1454 1454 1454
1477 1476 1475 1475 1474 1474 1472 1471 1470 1469 1468 1468 1467 1466 1464 1464 1463 1461 1461 1460 1459 1459 1459 1458 1457 1456 1456 1455 1454 1453 1453 1452 1451 1451 1450 1450 1450 1450 1450 1450 1450 1450 1449
1475 1474 1473 1473 1472 1471 1470 1469 1468 1467 1466 1465 1464 1463 1461 1460 1459 1458 1457 1457 1456 1455 1454 1454 1453 1452 1451 1451 1450 1449 1448 1448 1447 1447 1446 1446 1446 1446 1446 1446 1446 1445 1445
1473 1473 1472 1471 1470 1469 1467 1466 1465 1464 1463 1462 1460 1459 1457 1456 1456 1455 1454 1453 1452 1451 1450 1450 1449 1448 1447 1446 1446 1445 1444 1443 1443 1443 1442 1442 1442 1442 1442 1442 1441 1441 1441
1472 1471 1470 1469 1468 1466 1465 1464 1463 1462 1460 1459 1458 1456 1455 1453 1452 1451 1450 1449 1448 1447 1446 1445 1445 1444 1443 1442 1441 1441 1440 1439 1438 1438 1438 1438 1438 1437 1437 1437 1437 1437 1437
1470 1469 1468 1467 1466 1465 1463 1462 1461 1460 1458 1457 1455 1454 1452 1450 1449 1448 1447 1446 1445 1444 1443 1441 1441 1440 1439 1438 1437 1436 1435 1435 1434 1434 1433 1433 1433 1433 1433 1434 1433 1433 1433
1469 1467 1467 1465 1464 1463 1461 1460 1459 1458 1456 1454 1453 1451 1450 1448 1447 1446 1444 1443 1441 1440 1439 1438 1437 1436 1434 1433 1433 1432 1431 1431 1430 1430 1429 1429 1429 1429 1429 1430 1430 1430 1430
1467 1466 1465 1464 1462 1461 1460 1458 1457 1455 1454 1452 1451 1449 1447 1446 1444 1443 1441 1440 1438 1437 1436 1435 1433 1432 1431 1430 1429 1428 1427 1426 1426 1425 1425 1425 1426 1426 1426 1426 1426 1426 1426